Regional Weather Roundup
Issued by NWS Columbia, SC

Home | Current Version | Previous Version | Text Only | Print | Product List | Glossary On
Versions: 1 2 3 4 5 6 7 8 9 10 11 12 13 14 15 16 17 18 19 20 21 22 23 24 25 26 27 28 29 30 31 32 33 34 35 36 37 38 39 40 41 42 43 44 45 46 47 48 49 50
000
ASUS42 KCAE 020610
RWRCAE
REGIONAL WEATHER ROUNDUP
NATIONAL WEATHER SERVICE COLUMBIA SC
200 AM EDT THU APR 02 2015

NOTE: "FAIR" INDICATES FEW OR NO CLOUDS BELOW 12,000 FEET WITH NO
SIGNIFICANT WEATHER AND/OR OBSTRUCTIONS TO VISIBILITY.

NOT ALL STATIONS ARE QUALITY CONTROLLED BY THE NATIONAL
WEATHER SERVICE. USE DATA WITH CAUTION...ESPECIALLY
DEWPOINT OBSERVATIONS.

SCZ001>056-GAZ040-063>065-077-020700-
...UPSTATE SOUTH CAROLINA...

CITY           SKY/WX    TMP DP  RH WIND       PRES   REMARKS
ANDERSON       CLEAR     58  44  60 E6        30.18R
6HR MIN TEMP:  58; 6HR MAX TEMP:  72;

LIBERTY        PTCLDY    51  45  78 E6        30.18S
6HR MIN TEMP:  51; 6HR MAX TEMP:  78;

SPARTANBURG    CLEAR     57  41  54 E3        30.20R
CLEMSON        CLEAR     60  43  53 NE5       30.19R
6HR MIN TEMP:  59; 6HR MAX TEMP:  73;

GREENVILLE     CLEAR     60  40  47 E5        30.20R
6HR MIN TEMP:  59; 6HR MAX TEMP:  72;

GREENWOOD      CLEAR     58  49  72 SE7       30.20R
6HR MIN TEMP:  58; 6HR MAX TEMP:  69;

GREER          CLEAR     55  41  59 NE3       30.19R
6HR MIN TEMP:  54; 6HR MAX TEMP:  68;

ROCK HILL      CLEAR     55  45  68 SE9       30.23R
6HR MIN TEMP:  55; 6HR MAX TEMP:  68;

CHESTER        CLEAR     57  43  58 SE12      30.23R
LAURENS        CLEAR     57  54  88 SE3       30.20R


...CENTRAL SOUTH CAROLINA...

CITY           SKY/WX    TMP DP  RH WIND       PRES   REMARKS
COLUMBIA APT   CLEAR     57  48  72 SE7       30.22S
6HR MIN TEMP:  57; 6HR MAX TEMP:  70;

COLUMBIA OWENS CLEAR     56  47  71 VRB5      30.24S
6HR MIN TEMP:  56; 6HR MAX TEMP:  71;

DARLINGTON     CLEAR     52  45  76 SE7       30.27F
6HR MIN TEMP:  52; 6HR MAX TEMP:  64;

FLORENCE       CLEAR     51  46  83 E7        30.26S
6HR MIN TEMP:  51; 6HR MAX TEMP:  66;

MCENTIRE ANGB  CLEAR     53  49  84 E8        30.23S
6HR MIN TEMP:  53; 6HR MAX TEMP:  67;

ORANGEBURG     FAIR      54  49  83 E5        30.22F
6HR MIN TEMP:  54; 6HR MAX TEMP:  68;

SUMTER SHAW    CLEAR     53  48  82 SE9       30.23S
6HR MIN TEMP:  52; 6HR MAX TEMP:  66;

NEWBERRY       CLEAR    N/A N/A N/A SE7       30.23R
AIKEN          FAIR      55  48  76 SE10      30.24R HAZE
BARNWELL       FAIR      57  54  88 SE7       30.22S
MANNING        RAIN      46  32  57 CALM      30.25S
CAMDEN         FAIR      52  46  82 E7        30.26R
LANCASTER      CLEAR     54  45  71 SE8G17    30.24R
WINNSBORO      CLEAR     54  45  71 SE10      30.22S


...EASTERN AND COASTAL SOUTH CAROLINA...

CITY           SKY/WX    TMP DP  RH WIND       PRES   REMARKS
MYRTLE BEACH   CLEAR     57  45  62 E15       30.29S
6HR MIN TEMP:  57; 6HR MAX TEMP:  57;

N MYRTLE BCH   CLEAR     57  40  52 E12G22    30.27F
6HR MIN TEMP:  56; 6HR MAX TEMP:  58;

CONWAY         FAIR      54  43  66 E5        30.27S
MARION         FAIR      50  45  81 CALM      30.27S
HARTSVILLE     FAIR      50  46  87 SE5       30.27S
FLORENCE       CLEAR     51  46  83 E7        30.26S
6HR MIN TEMP:  51; 6HR MAX TEMP:  66;

DARLINGTON     CLEAR     52  45  76 SE7       30.27F
6HR MIN TEMP:  52; 6HR MAX TEMP:  64;

CHARLESTON APT CLEAR     59  52  77 E12       30.23F
6HR MIN TEMP:  58; 6HR MAX TEMP:  59;

MOUNT PLEASANT FAIR      59  54  82 E7        30.24S
WALTERBORO     FAIR      52  52 100 E3        30.23S
BEAUFORT       CLEAR     61  57  87 E10       30.21S
6HR MIN TEMP:  60; 6HR MAX TEMP:  61;



...EASTERN GEORGIA...

CITY           SKY/WX    TMP DP  RH WIND       PRES   REMARKS
AUGUSTA BUSH F CLEAR     56  50  80 SE6       30.20R
6HR MIN TEMP:  56; 6HR MAX TEMP:  72;

AUGUSTA DANIEL CLEAR     60  50  69 SE10      30.20R
6HR MIN TEMP:  60; 6HR MAX TEMP:  75;

THOMSON        PTCLDY    62  54  75 SE6       30.22S
6HR MIN TEMP:  62; 6HR MAX TEMP:  73;

WASHINGTON     FAIR      63  55  77 SE8       30.16S
CLAXTON        CLOUDY    61  59  94 E6        30.19F
SYLVANIA       CLEAR     55  55 100 CALM      30.21F
6HR MIN TEMP:  55; 6HR MAX TEMP:  67;

STATESBORO     CLEAR     56  56 100 CALM      30.19F
6HR MIN TEMP:  56; 6HR MAX TEMP:  70;

SAVANNAH       CLEAR     61  57  87 E8        30.19F
6HR MIN TEMP:  60; 6HR MAX TEMP:  62;



...SOUTHERN NORTH CAROLINA...

CITY           SKY/WX    TMP DP  RH WIND       PRES   REMARKS
CHARLOTTE      PTCLDY    56  40  55 SE16      30.23R
6HR MIN TEMP:  56; 6HR MAX TEMP:  69;

MONROE         CLEAR     53  42  66 VRB3      30.24R
6HR MIN TEMP:  53; 6HR MAX TEMP:  62;

WADESBORO      CLEAR     53  43  70 SE7       30.26R
6HR MIN TEMP:  52; 6HR MAX TEMP:  61;

ROCKINGHAM       N/A     50  42  74 SE7       30.26S
6HR MIN TEMP:  50; 6HR MAX TEMP:  63;

RUTHERFORDTON  PTCLDY    50  32  50 CALM      30.23R
6HR MIN TEMP:  50; 6HR MAX TEMP:  67;

ASHEVILLE      CLEAR     51  36  56 SE3       30.22S
6HR MIN TEMP:  49; 6HR MAX TEMP:  67;


$$


USA.gov is the U.S. government's official web portal to all federal, state and local government web resources and services.